1531846800.83,5235,17.13,73318.3,4.57,4.15,4.11,0,*4E
1531846802.0,5236,17.13,73328.3,4.57,4.15,4.23,0,*4C
1531846803.17,5237,17.13,73314.3,4.61,4.23,4.15,0,*48
1531846804.35,5238,17.13,73320.0,4.61,4.11,4.15,0,*46
1531846805.52,5239,17.13,73318.5,4.57,4.15,4.15,0,*46
1531846806.74,5240,17.13,73322.0,4.61,4.01,4.01,0,*4D
1531846807.92,5241,17.13,73326.5,4.61,3.93,3.93,0,*4C
1531846809.14,5242,17.13,73324.3,4.63,3.97,3.93,0,*49
1531846810.32,5243,17.13,73326.8,4.61,3.93,3.93,0,*4E
1531846811.5,5244,17.13,73322.3,4.61,3.93,3.89,0,*42
1531846812.69,5245,17.13,73314.0,4.61,3.89,3.93,0,*43
1531846813.91,5246,17.13,73314.3,4.61,4.01,4.05,0,*4F
1531846815.08,5247,17.13,73304.5,4.57,4.11,4.15,0,*4B
1531846816.26,5248,17.13,73296.8,4.61,4.15,4.15,0,*45
1531846817.45,5249,17.13,73290.3,4.63,4.19,4.15,0,*4A
1531846818.65,5250,17.13,73294.0,4.63,4.15,4.19,0,*42
1531846819.87,5251,17.19,73296.3,4.63,4.19,4.31,0,*45
1531846821.07,5252,17.13,73288.5,4.67,4.19,4.23,0,*41
1531846822.26,5253,17.13,73288.8,4.63,4.19,4.19,0,*4D
1531846823.45,5254,17.13,73282.5,4.63,4.19,4.27,0,*47
1531846824.65,5255,17.19,73304.5,4.65,4.19,4.31,0,*47
1531846825.81,5256,17.13,73300.0,4.65,4.15,4.19,0,*42
1531846827.07,5257,17.19,73318.5,4.63,4.05,4.05,0,*49
1531846828.27,5258,17.13,73308.8,4.63,3.81,3.81,0,*46
1531846829.49,5259,17.13,73300.0,4.65,3.79,3.71,0,*49
1531846830.71,5260,17.19,73310.8,4.65,3.67,3.67,0,*4B
1531846831.96,5261,17.13,73302.5,4.63,3.79,3.79,0,*4C
1531846833.17,5262,17.13,73304.8,4.63,3.89,3.93,0,*44
1531846834.39,5263,17.13,73308.3,4.63,3.93,3.97,0,*4A
1531846835.59,5264,17.13,73296.5,4.63,3.81,3.89,0,*41
1531846836.8,5265,17.13,73294.8,4.63,3.89,3.89,0,*48
1531846838.0,5266,17.19,73294.3,4.63,3.89,3.89,0,*4B
1531846839.23,5267,17.13,73288.5,4.63,3.93,3.97,0,*4E
1531846840.45,5268,17.13,73282.8,4.65,4.05,4.05,0,*43
1531846841.62,5269,17.13,73284.5,4.65,4.19,4.15,0,*4E
1531846842.81,5270,17.13,73296.5,4.63,4.19,4.15,0,*40
1531846843.98,5271,17.13,73296.3,4.65,4.15,4.15,0,*4B
1531846845.15,5272,17.13,73296.0,4.65,4.07,4.15,0,*4B
1531846846.38,5273,17.13,73300.3,4.65,4.05,4.05,0,*49
1531846847.6,5274,17.13,73296.3,4.63,3.97,3.93,0,*4C
1531846848.81,5275,17.13,73284.8,4.63,3.93,3.93,0,*49
1531846849.98,5276,17.19,73292.3,4.65,3.93,3.93,0,*4C
1531846851.17,5277,17.13,73290.0,4.65,3.93,3.97,0,*49
1531846852.42,5278,17.13,73288.5,4.63,3.97,4.05,0,*48
1531846853.64,5279,17.13,73296.5,4.65,3.97,3.97,0,*43
1531846854.81,5280,17.13,73276.5,4.65,3.93,3.93,0,*45
1531846856.02,5281,17.13,73288.0,4.63,3.93,3.93,0,*42
1531846857.23,5282,17.13,73284.3,4.65,3.97,4.05,0,*4B
1531846858.4,5283,17.13,73282.8,4.65,4.15,4.15,0,*46
1531846859.6,5284,17.13,73278.5,4.63,4.27,4.15,0,*46
1531846860.76,5285,17.13,73282.0,4.65,4.19,4.19,0,*40
1531846861.93,5286,17.19,73292.3,4.65,4.27,4.19,0,*4E
1531846863.12,5287,17.13,73286.8,4.67,4.23,4.19,0,*49
1531846864.32,5288,17.13,73290.8,4.67,4.19,4.23,0,*46
1531846865.48,5289,17.13,73284.3,4.65,4.15,4.19,0,*40
1531846866.68,5290,17.19,73286.5,4.67,4.19,4.23,0,*4F
1531846867.9,5291,17.13,73282.3,4.67,4.31,4.23,0,*44
1531846869.1,5292,17.13,73278.0,4.67,4.23,4.23,0,*44
1531846870.3,5293,17.13,73280.3,4.67,4.23,4.23,0,*45
1531846871.5,5294,17.13,73282.5,4.67,4.23,4.23,0,*42
1531846872.69,5295,17.13,73286.8,4.67,4.23,4.23,0,*43
1531846873.86,5296,17.13,73278.0,4.69,4.15,4.23,0,*4B
1531846875.06,5297,17.13,73280.8,4.67,4.19,4.19,0,*41
1531846876.23,5298,17.13,73268.8,4.69,4.15,4.23,0,*45
1531846877.4,5299,17.13,73272.5,4.69,4.15,4.23,0,*44
1531846878.57,5300,17.13,73284.5,4.69,4.23,4.23,0,*40
1531846879.76,5301,17.13,73286.0,4.67,4.19,4.19,0,*4F
1531846880.93,5302,17.13,73290.5,4.69,4.15,4.23,0,*47
1531846882.13,5303,17.13,73288.8,4.67,4.19,4.23,0,*44
1531846883.33,5304,17.13,73286.8,4.67,4.07,4.11,0,*4D
1531846884.53,5305,17.13,73290.8,4.69,4.05,4.15,0,*44
1531846885.7,5306,17.13,73292.0,4.69,4.11,4.15,0,*42
1531846886.89,5307,17.13,73300.3,4.67,4.11,4.19,0,*41
1531846888.1,5308,17.13,73298.0,4.67,4.07,4.07,0,*46
1531846889.34,5309,17.13,73288.5,4.67,3.97,4.01,0,*4F
1531846890.58,5310,17.13,73292.5,4.67,3.97,3.97,0,*4F
1531846891.75,5311,17.13,73290.5,4.69,4.11,4.11,0,*40
1531846892.95,5312,17.13,73302.5,4.67,4.11,4.11,0,*4D
1531846894.12,5313,17.13,73306.3,4.69,4.15,4.11,0,*46
1531846895.32,5314,17.13,73306.0,4.67,4.11,4.07,0,*4C
1531846896.54,5315,17.19,73292.0,4.69,4.01,4.01,0,*44
1531846897.78,5316,17.13,73296.8,4.67,3.97,3.97,0,*49
1531846899.01,5317,17.13,73304.0,4.69,4.05,4.05,0,*46
1531846900.21,5318,17.13,73312.5,4.67,4.07,4.07,0,*47
1531846901.42,5319,17.13,73320.3,4.67,4.07,4.07,0,*46
1531846902.59,5320,17.13,73320.3,4.69,4.11,4.11,0,*42
1531846903.79,5321,17.13,73312.8,4.67,4.07,4.07,0,*4D
1531846904.96,5322,17.13,73300.5,4.69,4.15,4.15,0,*40
1531846906.16,5323,17.13,73298.8,4.67,4.07,4.07,0,*4F
1531846907.34,5324,17.13,73294.0,4.69,4.11,4.11,0,*46
1531846908.56,5325,17.13,73288.8,4.69,4.01,4.05,0,*43
1531846909.75,5326,17.13,73286.5,4.69,4.11,4.05,0,*41
1531846910.92,5327,17.13,73284.3,4.69,4.23,4.23,0,*45
1531846912.09,5328,17.13,73294.8,4.69,4.27,4.27,0,*4A
1531846913.27,5329,17.13,73284.5,4.69,4.15,4.15,0,*4B
1531846914.44,5330,17.13,73288.5,4.69,4.27,4.15,0,*42
1531846915.61,5331,17.13,73288.5,4.69,4.27,4.27,0,*42
1531846916.78,5332,17.13,73278.0,4.69,4.15,4.23,0,*44
1531846917.95,5333,17.13,73264.3,4.73,4.15,4.15,0,*4B
1531846919.12,5334,17.13,73262.0,4.73,4.15,4.19,0,*40
1531846920.29,5335,17.13,73266.3,4.69,4.15,4.15,0,*46
1531846921.46,5336,17.13,73268.8,4.69,4.27,4.27,0,*45
1531846922.66,5337,17.13,73264.0,4.73,4.27,4.31,0,*48
1531846923.86,5338,17.13,73256.0,4.73,4.27,4.31,0,*47
1531846925.03,5339,17.13,73264.0,4.73,4.19,4.15,0,*4D
1531846926.2,5340,17.13,73260.0,4.73,4.27,4.27,0,*4F
1531846927.39,5341,17.13,73270.8,4.73,4.31,4.27,0,*49
1531846928.56,5342,17.13,73258.3,4.73,4.15,4.15,0,*4D
1531846929.78,5343,17.13,73254.3,4.73,4.01,4.05,0,*48
1531846930.96,5344,17.13,73244.0,4.73,4.15,4.07,0,*48
1531846932.13,5345,17.13,73252.8,4.69,4.15,4.15,0,*41
1531846933.33,5346,17.13,73262.3,4.73,4.19,4.31,0,*43
1531846934.49,5347,17.13,73262.8,4.73,4.19,4.27,0,*45
1531846935.69,5348,17.13,73264.5,4.73,4.31,4.27,0,*40
1531846936.86,5349,17.13,73270.3,4.73,4.15,4.15,0,*46
1531846938.03,5350,17.13,73282.0,4.73,4.15,4.19,0,*42
1531846939.19,5351,17.13,73272.8,4.73,4.19,4.19,0,*4F
1531846940.36,5352,17.13,73274.0,4.73,4.15,4.19,0,*40
1531846941.53,5353,17.13,73272.5,4.73,4.19,4.19,0,*4D
1531846942.7,5354,17.13,73278.5,4.73,4.15,4.15,0,*4A
1531846943.86,5355,17.13,73282.8,4.73,4.19,4.19,0,*4B
1531846945.06,5356,17.13,73282.0,4.75,4.27,4.19,0,*43
1531846946.22,5357,17.13,73296.0,4.73,4.27,4.27,0,*49
1531846947.42,5358,17.13,73294.3,4.75,4.27,4.19,0,*4D
1531846948.61,5359,17.13,73298.3,4.75,4.27,4.27,0,*41
1531846949.78,5360,17.13,73298.0,4.73,4.19,4.27,0,*40
1531846951.01,5361,17.13,73296.8,4.73,4.05,4.05,0,*4C
1531846952.18,5362,17.13,73294.3,4.73,4.15,4.07,0,*4C
1531846953.41,5363,17.13,73294.8,4.73,4.05,4.05,0,*4E
1531846954.61,5364,17.13,73280.8,4.73,4.05,4.07,0,*4B
1531846955.79,5365,17.13,73284.3,4.73,3.93,3.93,0,*48
1531846957.0,5366,17.13,73276.8,4.73,4.01,4.01,0,*4B
1531846958.22,5367,17.13,73270.5,4.73,4.05,4.01,0,*4E
1531846959.4,5368,17.13,73280.5,4.73,4.07,4.07,0,*45
1531846960.58,5369,17.13,73278.3,4.73,4.07,4.07,0,*44
1531846961.75,5370,17.13,73282.8,4.73,4.07,4.07,0,*4C
1531846962.95,5371,17.13,73282.3,4.73,4.05,4.07,0,*4F
1531846964.13,5372,17.13,73284.5,4.73,4.07,4.07,0,*4E
1531846965.31,5373,17.13,73282.8,4.73,4.15,4.07,0,*4C
1531846966.48,5374,17.13,73278.8,4.73,4.07,4.07,0,*48
1531846967.68,5375,17.13,73280.5,4.73,4.07,4.05,0,*4B
1531846968.88,5376,17.13,73290.3,4.73,4.07,4.05,0,*48
1531846970.08,5377,17.13,73280.0,4.73,3.81,3.79,0,*4C
1531846971.24,5378,17.13,73290.3,4.73,3.59,3.55,0,*48
1531846972.41,5379,17.13,73288.0,4.73,3.59,3.55,0,*49
1531846973.6,5380,17.13,73290.0,4.73,3.55,3.49,0,*4E
1531846974.79,5381,17.13,73290.0,4.69,3.53,3.55,0,*4F
1531846975.96,5382,17.13,73290.5,4.69,3.63,3.63,0,*4A
1531846977.18,5383,17.13,73284.3,4.69,3.79,3.79,0,*4B
1531846978.41,5384,17.13,73288.8,4.69,3.75,3.79,0,*40
1531846979.64,5385,17.13,73286.5,4.67,3.75,3.81,0,*48
1531846980.83,5386,17.13,73274.3,4.69,3.63,3.67,0,*4A
1531846982.04,5387,17.13,73260.8,4.69,3.53,3.53,0,*4F
1531846983.24,5388,17.13,73244.5,4.67,3.63,3.63,0,*4E
1531846984.46,5389,17.13,73254.5,4.69,3.75,3.67,0,*42
1531846985.65,5390,17.13,73254.3,4.67,3.59,3.63,0,*4E
1531846986.91,5391,17.13,73256.0,4.67,3.71,3.75,0,*42
1531846988.11,5392,17.13,73228.0,4.67,3.85,3.93,0,*42
1531846989.31,5393,17.13,73280.0,4.67,3.93,3.93,0,*44
1531846990.55,5394,17.13,73284.5,4.67,4.01,3.97,0,*4B
1531846991.76,5395,17.13,73274.3,4.67,4.07,4.07,0,*42
1531846992.98,5396,17.13,73290.0,4.67,3.97,3.93,0,*45
1531846994.18,5397,17.13,73280.5,4.67,3.93,3.93,0,*40
1531846995.38,5398,17.13,73280.5,4.67,4.07,4.11,0,*48
1531846996.58,5399,17.13,73292.0,4.67,4.11,4.11,0,*4E
1531846997.75,5400,17.13,73270.0,4.69,4.15,4.23,0,*42
1531846998.95,5401,17.13,73260.5,4.67,4.07,4.11,0,*4F
1531847000.12,5402,17.13,73272.3,4.69,4.15,4.11,0,*41
1531847001.29,5403,17.13,73286.8,4.69,4.15,4.11,0,*40
1531847002.5,5404,17.13,73294.0,4.69,3.97,4.01,0,*4B
1531847003.7,5405,17.13,73284.3,4.69,3.85,3.79,0,*41
1531847004.95,5406,17.13,73282.5,4.67,3.75,3.75,0,*4F
1531847006.18,5407,17.13,73278.0,4.69,3.67,3.67,0,*40
1531847007.38,5408,17.13,73290.8,4.67,3.93,3.93,0,*41
1531847008.59,5409,17.13,73294.5,4.67,3.93,3.93,0,*40
1531847009.81,5410,17.13,73294.3,4.69,4.05,4.05,0,*46
1531847011.01,5411,17.13,73302.0,4.67,4.11,4.11,0,*49
1531847012.18,5412,17.13,73286.5,4.69,4.23,4.27,0,*40
1531847013.35,5413,17.13,73292.0,4.69,4.23,4.23,0,*45
1531847014.52,5414,17.13,73292.3,4.69,4.15,4.15,0,*42
1531847015.69,5415,17.13,73270.0,4.69,4.23,4.23,0,*43
1531847016.91,5416,17.13,73292.0,4.73,4.31,4.31,0,*4B
1531847018.09,5417,17.13,73304.0,4.69,4.11,4.23,0,*40
1531847019.26,5418,17.13,73312.3,4.69,4.23,4.23,0,*4E
1531847020.47,5419,17.13,73296.3,4.69,4.01,4.01,0,*4F
1531847021.7,5420,17.13,73292.8,4.69,4.05,4.05,0,*45
1531847022.87,5421,17.13,73298.3,4.69,4.15,4.15,0,*44
1531847024.04,5422,17.13,73298.3,4.69,4.23,4.23,0,*47
1531847025.21,5423,17.13,73300.5,4.69,4.27,4.23,0,*42
1531847026.39,5424,17.13,73294.3,4.73,4.07,4.15,0,*49
1531847027.61,5425,17.13,73288.8,4.69,4.05,4.05,0,*40
1531847028.81,5426,17.13,73284.3,4.73,3.93,4.01,0,*44
1531847030.02,5427,17.13,73294.8,4.73,4.01,4.01,0,*49
1531847031.2,5428,17.13,73286.3,4.73,4.07,4.07,0,*46
1531847032.42,5429,17.13,73286.8,4.73,4.01,4.05,0,*43
1531847033.64,5430,17.13,73294.8,4.73,4.01,4.05,0,*4B
1531847034.87,5431,17.13,73304.8,4.73,4.05,4.05,0,*4E
1531847036.11,5432,17.13,73302.8,4.67,3.97,3.97,0,*48
1531847037.35,5433,17.13,73304.3,4.67,3.97,4.01,0,*41
1531847038.58,5434,17.13,73306.3,4.69,4.05,4.05,0,*40
1531847039.75,5435,17.13,73308.0,4.69,4.23,4.15,0,*44
1531847040.92,5436,17.13,73318.5,4.69,4.23,4.15,0,*47
1531847042.14,5437,17.13,73300.8,4.69,4.05,4.01,0,*47
1531847043.31,5438,17.13,73300.3,4.69,4.11,4.11,0,*4C
1531847044.51,5439,17.13,73306.0,4.69,4.05,4.11,0,*48
1531847045.68,5440,17.13,73310.5,4.69,4.23,4.23,0,*43
1531847046.85,5441,17.13,73304.5,4.69,4.23,4.23,0,*42
1531847048.02,5442,17.13,73304.0,4.73,4.15,4.27,0,*4B
1531847049.18,5443,17.13,73306.8,4.73,4.19,4.19,0,*4B
1531847050.35,5444,17.13,73306.0,4.73,4.19,4.19,0,*4C
1531847051.51,5445,17.13,73306.5,4.73,4.19,4.15,0,*41
1531847052.68,5446,17.13,73304.3,4.73,4.15,4.19,0,*42
1531847053.88,5447,17.13,73304.3,4.73,4.19,4.31,0,*45
1531847055.06,5448,17.13,73304.8,4.73,4.15,4.07,0,*43
1531847056.28,5449,17.13,73300.0,4.73,4.05,4.05,0,*41
1531847057.46,5450,17.13,73300.8,4.73,4.15,4.07,0,*4A
1531847058.65,5451,17.13,73304.5,4.75,4.15,4.19,0,*42
1531847059.82,5452,17.13,73302.3,4.73,4.15,4.19,0,*47
1531847060.99,5453,17.13,73292.5,4.73,4.15,4.15,0,*4A
1531847062.17,5454,17.13,73304.3,4.73,4.07,4.07,0,*4D
1531847063.34,5455,17.13,73300.5,4.73,4.15,4.15,0,*4C
1531847064.57,5456,17.13,73302.3,4.73,4.05,4.05,0,*4F
1531847065.74,5457,17.13,73300.8,4.73,3.81,3.89,0,*46
1531847066.92,5458,17.13,73302.8,4.73,3.89,3.89,0,*41
1531847068.13,5459,17.13,73296.3,4.73,4.01,4.01,0,*40
1531847069.31,5460,17.13,73298.0,4.73,3.89,3.93,0,*41
1531847070.53,5461,17.13,73280.5,4.73,4.01,4.01,0,*4B
1531847071.74,5462,17.13,73282.5,4.73,4.01,4.01,0,*48
1531847072.96,5463,17.13,73290.0,4.73,4.01,4.01,0,*49
1531847074.14,5464,17.13,73292.3,4.69,3.89,3.89,0,*45
1531847075.3,5465,17.13,73294.5,4.69,3.85,3.85,0,*44
1531847076.53,5466,17.13,73272.0,4.69,3.75,3.67,0,*44
1531847077.73,5467,17.13,73278.3,4.69,3.85,3.75,0,*49
1531847078.95,5468,17.13,73282.8,4.69,4.05,4.05,0,*49
1531847080.18,5469,17.13,73278.8,4.69,4.05,4.05,0,*48
1531847081.42,5470,17.13,73290.0,4.67,3.97,3.97,0,*4E
1531847082.6,5471,17.13,73292.5,4.73,4.07,4.07,0,*4A
1531847083.8,5472,17.13,73304.5,4.69,4.05,4.15,0,*43
1531847085.03,5473,17.13,73274.3,4.67,3.75,3.81,0,*46
1531847086.22,5474,17.13,73260.5,4.73,3.59,3.67,0,*42
1531847087.39,5475,17.13,73274.8,4.69,3.85,3.85,0,*45
1531847088.56,5476,17.13,73280.8,4.69,3.85,3.89,0,*4A
1531847089.76,5477,17.13,73266.8,4.67,3.85,3.85,0,*49
1531847091.01,5478,17.13,73254.3,4.67,3.75,3.75,0,*46
1531847092.21,5479,17.13,73278.0,4.67,3.81,3.85,0,*43
1531847093.37,5480,17.13,73244.3,4.69,3.85,3.85,0,*4F
1531847094.59,5481,17.13,73242.3,4.69,3.97,3.97,0,*4E
1531847095.82,5482,17.13,73246.0,4.69,4.05,4.05,0,*4D
1531847097.03,5483,17.13,73170.3,4.67,4.01,4.11,0,*43
1531847098.25,5484,17.13,73246.5,4.69,4.01,4.01,0,*4B
1531847099.44,5485,17.13,73248.3,4.67,3.81,3.85,0,*40
1531847100.65,5486,17.13,73252.0,4.67,3.93,3.93,0,*47
1531847101.87,5487,17.13,73278.3,4.69,3.97,4.05,0,*44
1531847103.07,5488,17.13,73282.3,4.67,4.07,4.11,0,*4E
1531847104.24,5489,17.13,73294.0,4.69,4.11,4.15,0,*42
1531847105.41,5490,17.13,73302.0,4.69,4.15,4.15,0,*4E
1531847106.63,5491,17.13,73292.0,4.69,4.01,4.01,0,*4F
1531847107.84,5492,17.13,73244.8,4.69,4.01,4.01,0,*4C
1531847109.04,5493,17.13,73244.5,4.67,3.85,3.85,0,*43
1531847110.23,5494,17.13,73262.8,4.69,3.97,3.89,0,*45
1531847111.46,5495,17.13,73268.0,4.69,3.75,3.75,0,*4B
1531847112.65,5496,17.13,73270.0,4.69,3.97,3.85,0,*4B
1531847113.88,5497,17.13,73258.8,4.67,3.97,3.93,0,*43
1531847115.1,5498,17.13,73278.8,4.69,4.05,3.97,0,*4A
1531847116.32,5499,17.13,73266.8,4.69,4.05,4.01,0,*43
1531847117.54,5500,17.13,73266.3,4.69,4.01,4.01,0,*46
1531847118.73,5501,17.13,73282.5,4.69,4.05,4.11,0,*42
1531847119.95,5502,17.13,73290.5,4.69,3.97,4.01,0,*4C
1531847121.19,5503,17.13,73292.8,4.67,4.01,3.97,0,*43
1531847122.42,5504,17.13,73302.8,4.69,4.05,4.01,0,*46
1531847123.64,5505,17.13,73298.8,4.67,4.07,4.01,0,*4B
1531847124.86,5506,17.13,73304.0,4.69,4.05,4.01,0,*44
1531847126.11,5507,17.13,73296.5,4.67,4.01,4.05,0,*4B
1531847127.32,5508,17.13,73294.5,4.69,4.01,4.01,0,*4E
1531847128.55,5509,17.13,73288.8,4.69,4.05,4.05,0,*4F
1531847129.75,5510,17.13,73282.3,4.69,4.05,4.11,0,*42
1531847130.94,5511,17.13,73294.0,4.69,4.05,4.11,0,*43
1531847132.12,5512,17.13,73288.0,4.69,4.15,4.15,0,*45
1531847133.29,5513,17.13,73288.5,4.73,4.15,4.15,0,*4F
1531847134.45,5514,17.13,73292.3,4.73,4.19,4.19,0,*48
1531847135.62,5515,17.13,73300.5,4.73,4.19,4.19,0,*49
1531847136.79,5516,17.13,73304.5,4.73,4.15,4.15,0,*4A
1531847137.99,5517,17.13,73296.0,4.73,4.07,4.05,0,*49
1531847139.21,5518,17.13,73288.5,4.73,4.01,4.01,0,*44
1531847140.42,5519,17.13,73280.0,4.73,4.01,4.01,0,*45
1531847141.59,5520,17.13,73278.0,4.73,4.07,4.15,0,*4C
1531847142.79,5521,17.13,73276.3,4.73,4.27,4.31,0,*49
1531847143.97,5522,17.13,73276.0,4.73,4.27,4.15,0,*4C
1531847145.14,5523,17.13,73272.5,4.73,4.15,4.15,0,*4C
1531847146.3,5524,17.13,73278.8,4.73,4.19,4.19,0,*4B
1531847147.47,5525,17.13,73268.3,4.73,4.15,4.15,0,*4A
1531847148.7,5526,17.13,73276.5,4.73,4.31,4.31,0,*49
1531847149.9,5527,17.13,73274.5,4.73,4.37,4.31,0,*4E
1531847151.13,5528,17.13,73276.3,4.73,4.31,4.31,0,*47
1531847152.33,5529,17.13,73284.0,4.73,4.27,4.31,0,*41
1531847153.53,5530,17.13,73286.8,4.75,4.19,4.15,0,*44
1531847154.73,5531,17.13,73276.3,4.73,4.05,4.07,0,*4D
1531847155.9,5532,17.13,73280.0,4.73,4.19,4.15,0,*40
1531847157.06,5533,17.13,73286.5,4.73,4.19,4.27,0,*40
1531847158.26,5534,17.13,73282.0,4.73,4.27,4.31,0,*4D
1531847159.43,5535,17.13,73282.3,4.73,4.19,4.19,0,*4B
1531847160.6,5536,17.13,73278.8,4.73,4.15,4.19,0,*44
1531847161.76,5537,17.13,73280.5,4.73,4.15,4.19,0,*45
1531847162.99,5538,17.13,73284.5,4.73,4.05,4.05,0,*46
1531847164.19,5539,17.13,73290.3,4.73,4.05,4.07,0,*45
1531847165.37,5540,17.13,73290.8,4.73,4.07,4.07,0,*49
1531847166.54,5541,17.13,73294.3,4.73,4.07,4.15,0,*4B
1531847167.71,5542,17.13,73290.5,4.73,4.15,4.15,0,*4B
1531847168.88,5543,17.13,73290.8,4.73,4.19,4.19,0,*4A
1531847170.04,5544,17.13,73290.0,4.73,4.19,4.19,0,*4D
1531847171.21,5545,17.13,73298.0,4.73,4.19,4.19,0,*4C
1531847172.38,5546,17.13,73296.3,4.73,4.07,4.15,0,*4C
1531847173.61,5547,17.13,73304.8,4.73,4.05,4.05,0,*4E
1531847174.83,5548,17.13,73304.0,4.73,4.05,4.05,0,*41
1531847176.03,5549,17.13,73300.8,4.73,4.01,3.93,0,*4C
1531847177.24,5550,17.13,73306.3,4.73,4.01,4.01,0,*48
1531847178.46,5551,17.13,73286.0,4.73,4.01,4.01,0,*49
1531847179.68,5552,17.13,73286.3,4.73,4.01,4.01,0,*4A
1531847180.85,5553,17.13,73284.8,4.73,4.07,4.07,0,*4B
1531847182.02,5554,17.13,73292.3,4.73,4.15,4.15,0,*4C
1531847183.2,5555,17.13,73282.8,4.73,4.07,4.15,0,*4E
1531847184.4,5556,17.13,73282.8,4.73,4.05,4.07,0,*4C
1531847185.57,5557,17.13,73288.8,4.73,4.15,4.07,0,*4C
1531847186.8,5558,17.13,73288.8,4.73,4.05,4.05,0,*40
1531847188.0,5559,17.13,73302.8,4.73,4.05,4.07,0,*43
1531847189.22,5560,17.13,73282.5,4.73,4.05,4.01,0,*4F
1531847190.42,5561,17.13,73284.5,4.73,3.79,3.89,0,*45
1531847191.65,5562,17.13,73284.8,4.73,4.05,4.05,0,*49
1531847192.83,5563,17.13,73296.8,4.73,4.07,4.07,0,*48
1531847194.0,5564,17.13,73288.8,4.73,4.15,4.15,0,*4F
1531847195.23,5565,17.13,73262.3,4.73,4.05,4.05,0,*4E
1531847196.4,5566,17.13,73282.3,4.73,4.07,4.07,0,*4D
1531847197.58,5567,17.13,73292.8,4.73,4.15,4.07,0,*4F
1531847198.75,5568,17.13,73286.3,4.73,4.07,4.07,0,*43
1531847199.97,5569,17.13,73280.5,4.73,4.01,4.01,0,*42
1531847201.17,5570,17.13,73276.8,4.73,4.05,4.07,0,*48
1531847202.34,5571,17.13,73278.8,4.73,4.19,4.15,0,*47
1531847203.51,5572,17.13,73266.5,4.73,4.15,4.15,0,*48
1531847204.74,5573,17.13,73268.5,4.73,4.05,4.05,0,*49
1531847205.94,5574,17.13,73268.3,4.73,4.07,4.05,0,*4C
1531847207.11,5575,17.13,73270.0,4.73,4.07,4.07,0,*4F
1531847208.34,5576,17.13,73278.3,4.73,4.05,4.05,0,*4C
1531847209.55,5577,17.13,73268.3,4.73,4.01,4.01,0,*4D
1531847210.73,5578,17.13,73272.3,4.73,3.93,3.89,0,*49
1531847211.91,5579,17.13,73272.5,4.73,3.89,3.89,0,*43
1531847213.12,5580,17.13,73274.8,4.73,4.01,4.01,0,*45
1531847214.34,5581,17.13,73282.0,4.69,3.97,3.97,0,*4F
1531847215.54,5582,17.13,73270.5,4.69,4.05,4.11,0,*49
1531847216.75,5583,17.13,73268.3,4.69,4.01,4.01,0,*4D
1531847217.97,5584,17.13,73256.8,4.69,3.97,4.01,0,*42
1531847219.19,5585,17.13,73258.3,4.73,4.01,4.01,0,*40
1531847220.41,5586,17.13,73262.5,4.73,3.79,3.79,0,*43
1531847221.63,5587,17.13,73258.5,4.73,3.79,3.79,0,*42
1531847222.8,5588,17.13,73258.5,4.73,3.81,3.89,0,*45
1531847224.02,5589,17.13,73256.5,4.73,4.01,4.01,0,*4C
1531847225.22,5590,17.13,73262.5,4.69,4.05,4.11,0,*4A
1531847226.43,5591,17.13,73256.0,4.69,4.01,4.01,0,*4E
1531847227.65,5592,17.13,73272.5,4.69,3.97,3.97,0,*4D
1531847228.87,5593,17.13,73266.5,4.69,3.97,3.97,0,*4C
1531847230.08,5594,17.13,73254.8,4.69,3.97,3.97,0,*4B
1531847231.3,5595,17.13,73260.8,4.69,3.97,4.05,0,*46
1531847232.47,5596,17.13,73272.5,4.69,4.15,4.15,0,*49
1531847233.64,5597,17.13,73270.8,4.69,4.27,4.27,0,*48
1531847234.82,5598,17.13,73264.0,4.69,4.11,4.15,0,*43
1531847235.98,5599,17.13,73268.8,4.73,4.19,4.19,0,*4D
1531847237.21,5600,17.13,73268.0,4.73,4.31,4.31,0,*4E
1531847238.38,5601,17.13,73276.8,4.73,4.27,4.27,0,*4F
1531847239.55,5602,17.13,73274.3,4.73,4.15,4.15,0,*4C
1531847240.72,5603,17.13,73274.5,4.73,4.15,4.07,0,*4E
1531847241.95,5604,17.13,73266.0,4.73,4.05,4.05,0,*4A
1531847243.17,5605,17.13,73264.3,4.73,4.05,4.01,0,*4F
1531847244.35,5606,17.13,73250.3,4.73,4.07,4.07,0,*48
1531847245.52,5607,17.13,73260.3,4.73,4.15,4.15,0,*49
1531847246.69,5608,17.13,73254.8,4.73,4.15,4.15,0,*46
1531847247.86,5609,17.13,73258.8,4.73,4.07,4.19,0,*48
1531847249.02,5610,17.13,73244.8,4.73,4.19,4.19,0,*4F
1531847250.22,5611,17.13,73260.0,4.73,4.31,4.27,0,*49
1531847251.42,5612,17.13,73266.5,4.73,4.27,4.31,0,*4A
1531847252.61,5613,17.13,73266.8,4.73,4.31,4.27,0,*4B
1531847253.84,5614,17.13,73272.0,4.73,4.31,4.31,0,*4B
1531847255.07,5615,17.13,73264.5,4.73,4.31,4.31,0,*4A
1531847256.29,5616,17.13,73266.3,4.73,4.31,4.31,0,*49
1531847257.5,5617,17.13,73270.3,4.73,4.37,4.31,0,*4E
1531847258.7,5618,17.13,73262.0,4.73,4.27,4.31,0,*40
1531847259.87,5619,17.13,73272.0,4.73,4.27,4.27,0,*46
1531847261.07,5620,17.13,73278.0,4.73,4.27,4.31,0,*4B
1531847262.26,5621,17.13,73280.0,4.75,4.19,4.27,0,*46
1531847263.46,5622,17.13,73274.3,4.75,4.15,4.15,0,*48
1531847264.66,5623,17.13,73276.3,4.75,4.07,4.15,0,*4A
1531847265.9,5624,17.13,73284.3,4.75,4.01,4.01,0,*4E
1531847267.12,5625,17.13,73282.3,4.75,3.55,3.49,0,*42
1531847268.32,5626,17.13,73274.0,4.73,3.07,2.99,0,*4C
1531847269.55,5627,17.13,73266.3,4.73,3.07,3.07,0,*4B
1531847270.72,5628,17.13,73270.8,4.73,3.25,3.25,0,*44
1531847271.89,5629,17.13,73278.8,4.73,3.59,3.55,0,*49
1531847273.08,5630,17.13,73278.3,4.73,3.93,4.01,0,*41
1531847274.3,5631,17.13,73282.0,4.69,4.01,4.01,0,*47
1531847275.5,5632,17.13,73282.5,4.69,4.11,4.05,0,*41
1531847276.71,5633,17.13,73270.3,4.69,4.01,4.01,0,*45
1531847277.89,5634,17.13,73278.3,4.73,3.93,3.93,0,*49
1531847279.07,5635,17.13,73258.3,4.73,3.93,3.89,0,*43
1531847280.24,5636,17.13,73258.5,4.73,3.93,3.89,0,*40
1531847281.42,5637,17.13,73258.3,4.73,4.07,4.15,0,*49
1531847282.58,5638,17.13,73262.0,4.73,4.19,4.19,0,*45
1531847283.75,5639,17.13,73278.0,4.73,4.19,4.27,0,*49
1531847284.92,5640,17.13,73278.8,4.73,4.15,4.07,0,*49
1531847286.09,5641,17.13,73276.0,4.73,3.55,3.55,0,*4B
1531847287.31,5642,17.13,73268.8,4.69,3.03,3.07,0,*47
1531847288.57,5643,17.13,73266.5,4.67,3.15,3.15,0,*4C
1531847289.77,5644,17.13,73272.8,4.69,3.29,3.33,0,*4E
1531847291.01,5645,17.13,73270.3,4.67,3.37,3.37,0,*4A
1531847292.26,5646,17.13,73272.3,4.67,3.37,3.37,0,*49
1531847293.51,5647,17.13,73278.8,4.67,3.37,3.37,0,*48
1531847294.76,5648,17.13,73274.0,4.67,3.41,3.41,0,*47
1531847296.01,5649,17.13,73282.0,4.67,3.41,3.37,0,*47
1531847297.26,5650,17.13,73274.8,4.63,3.71,3.67,0,*4D
1531847298.43,5651,17.13,73272.0,4.65,3.25,3.25,0,*4D
1531847299.6,5652,17.13,73278.0,4.65,3.59,3.59,0,*4E
1531847300.8,5653,17.13,73270.3,4.63,3.89,3.89,0,*49
1531847302.05,5654,17.13,73258.0,4.63,3.97,3.97,0,*4E
1531847303.27,5655,17.13,73260.0,4.65,3.97,4.05,0,*45
1531847304.49,5656,17.13,73242.3,4.65,4.05,4.05,0,*4A
1531847305.66,5657,17.13,73232.3,4.65,4.15,4.15,0,*4B
1531847306.83,5658,17.13,73234.8,4.65,4.07,4.07,0,*44
1531847308.03,5659,17.13,73254.8,4.67,4.11,4.11,0,*47
1531847309.23,5660,17.13,73276.8,4.67,4.11,4.07,0,*4A
1531847310.43,5661,17.13,73286.0,4.67,4.11,4.11,0,*4C
1531847311.6,5662,17.13,73270.3,4.69,4.11,4.11,0,*41
1531847312.82,5663,17.13,73262.3,4.67,4.07,4.01,0,*48
1531847314.0,5664,17.13,73264.3,4.69,4.15,4.15,0,*47
1531847315.21,5665,17.13,73256.5,4.69,4.01,4.05,0,*42
1531847316.39,5666,17.13,73272.3,4.69,4.15,4.23,0,*40
1531847317.58,5667,17.13,73258.3,4.67,4.07,4.11,0,*4D
1531847318.79,5668,17.13,73244.5,4.67,4.07,4.07,0,*45
1531847319.96,5669,17.13,73244.5,4.69,4.15,4.15,0,*4A
1531847321.16,5670,17.13,73254.8,4.67,4.23,4.23,0,*4C
1531847322.33,5671,17.13,73240.0,4.69,4.33,4.37,0,*47
1531847323.51,5672,17.13,73244.5,4.69,4.27,4.33,0,*45
1531847324.69,5673,17.13,73234.8,4.73,4.37,4.37,0,*4A
1531847325.87,5674,17.13,73260.3,4.73,4.37,4.37,0,*4D
1531847327.05,5675,17.13,73250.0,4.73,4.37,4.41,0,*4D
1531847328.22,5676,17.13,73252.8,4.73,4.37,4.49,0,*46
1531847329.4,5677,17.13,73256.8,4.73,4.37,4.37,0,*4E
1531847330.59,5678,17.13,73256.8,4.73,4.37,4.37,0,*41
1531847331.75,5679,17.13,73264.8,4.73,4.27,4.27,0,*40